AXM6413 WMKP-WMKJ

Flight info

Callsign AXM6413
Flight time N/A
Altitude 31000
Route BOGUK DCT ANBIK Y507 MAKNA Y511 TOPOR W534 EMTUV
Aircraft A320/M-SDE3FGHIRWY/LB1

Departure

Time N/A
Airport Penang International Airport (WMKP)

Arrival

Time 2026-05-08 14:23
Airport Senai International Airport (WMKJ)
Time Latitude Longitude Altitude Speed Heading
2026-05-08 13:39 4.37530 100.93483 29982 ft 467 kts 152°
2026-05-08 13:39 4.34605 100.94910 30132 ft 469 kts 152°
2026-05-08 13:39 4.31663 100.96342 30273 ft 470 kts 152°
2026-05-08 13:40 4.28716 100.97774 30425 ft 471 kts 152°
2026-05-08 13:40 4.25762 100.99211 30578 ft 472 kts 152°
2026-05-08 13:40 4.22811 101.00648 30780 ft 471 kts 152°
2026-05-08 13:40 4.19859 101.02084 30878 ft 471 kts 152°
2026-05-08 13:41 4.13957 101.04953 31037 ft 471 kts 152°
2026-05-08 13:41 4.11007 101.06387 30909 ft 472 kts 152°
2026-05-08 13:41 4.08084 101.07807 30854 ft 460 kts 152°
2026-05-08 13:42 4.02395 101.10574 30878 ft 454 kts 152°
2026-05-08 13:42 3.96718 101.13348 30882 ft 454 kts 152°
2026-05-08 13:43 3.90998 101.16136 30883 ft 454 kts 152°
2026-05-08 13:43 3.85351 101.18872 30882 ft 454 kts 152°
2026-05-08 13:44 3.79671 101.21629 30881 ft 453 kts 152°
2026-05-08 13:44 3.77793 101.22544 30880 ft 453 kts 152°
2026-05-08 13:46 3.74622 101.23958 30900 ft 453 kts 154°
2026-05-08 13:47 3.69003 101.26794 30880 ft 451 kts 148°
2026-05-08 13:47 3.63538 101.29877 30879 ft 451 kts 148°
2026-05-08 13:48 3.58027 101.32871 30881 ft 451 kts 149°
2026-05-08 13:48 3.52451 101.35760 30881 ft 451 kts 150°
2026-05-08 13:49 3.46865 101.38617 30880 ft 451 kts 150°
2026-05-08 13:49 3.41328 101.41479 30877 ft 450 kts 150°
2026-05-08 13:50 3.35767 101.44378 30877 ft 450 kts 150°
2026-05-08 13:50 3.30193 101.47252 30880 ft 451 kts 152°
2026-05-08 13:51 3.24485 101.49905 30878 ft 451 kts 153°
2026-05-08 13:51 3.18753 101.52465 30877 ft 451 kts 153°
2026-05-08 13:52 3.13080 101.55041 30879 ft 451 kts 153°
2026-05-08 13:52 3.07381 101.57680 30877 ft 451 kts 153°
2026-05-08 13:53 3.01685 101.60326 30878 ft 451 kts 153°
2026-05-08 13:53 2.95985 101.62962 30877 ft 451 kts 153°
2026-05-08 13:54 2.90281 101.65591 30877 ft 451 kts 153°
2026-05-08 13:54 2.84579 101.68210 30875 ft 451 kts 153°
2026-05-08 13:55 2.78880 101.70837 30881 ft 450 kts 153°
2026-05-08 13:56 2.70351 101.74787 30880 ft 450 kts 152°
2026-05-08 13:56 2.64717 101.77517 30878 ft 449 kts 151°
2026-05-08 13:57 2.59105 101.80294 30876 ft 449 kts 152°
2026-05-08 13:57 2.53814 101.83535 30878 ft 445 kts 137°
2026-05-08 13:58 2.49781 101.88161 30876 ft 441 kts 125°
2026-05-08 13:58 2.46094 101.93065 30869 ft 441 kts 125°
2026-05-08 13:59 2.42392 101.97966 30873 ft 441 kts 125°
2026-05-08 13:59 2.38696 102.02864 30877 ft 441 kts 125°
2026-05-08 14:00 2.35000 102.07763 30881 ft 441 kts 126°
2026-05-08 14:00 2.31996 102.11752 30882 ft 441 kts 125°
2026-05-08 14:00 2.30140 102.14220 30720 ft 447 kts 125°
2026-05-08 14:01 2.28265 102.16714 29493 ft 448 kts 125°
2026-05-08 14:01 2.26410 102.19179 28733 ft 434 kts 125°
2026-05-08 14:01 2.24642 102.21522 28473 ft 411 kts 126°
2026-05-08 14:01 2.22944 102.23765 27940 ft 400 kts 126°
2026-05-08 14:02 2.21273 102.25975 27412 ft 398 kts 126°
2026-05-08 14:02 2.19609 102.28182 26896 ft 397 kts 125°
2026-05-08 14:02 2.17948 102.30389 26377 ft 396 kts 125°
2026-05-08 14:02 2.16296 102.32588 25875 ft 395 kts 125°
2026-05-08 14:03 2.14650 102.34781 25367 ft 394 kts 125°
2026-05-08 14:03 2.13003 102.36972 24891 ft 393 kts 125°
2026-05-08 14:03 2.11360 102.39155 24407 ft 392 kts 126°
2026-05-08 14:03 2.09720 102.41331 23949 ft 391 kts 126°
2026-05-08 14:04 2.08086 102.43495 23487 ft 389 kts 126°
2026-05-08 14:04 2.06454 102.45652 22970 ft 387 kts 126°
2026-05-08 14:04 2.04840 102.47787 22521 ft 383 kts 126°
2026-05-08 14:04 2.03241 102.49906 22079 ft 380 kts 126°
2026-05-08 14:05 2.01654 102.52009 21625 ft 378 kts 126°
2026-05-08 14:05 2.00100 102.54074 21165 ft 375 kts 126°
2026-05-08 14:05 1.98531 102.56158 20707 ft 373 kts 126°
2026-05-08 14:05 1.96979 102.58224 20247 ft 371 kts 126°
2026-05-08 14:06 1.95427 102.60288 19769 ft 370 kts 126°
2026-05-08 14:06 1.93859 102.62370 19293 ft 369 kts 126°
2026-05-08 14:06 1.92315 102.64418 18818 ft 369 kts 126°
2026-05-08 14:07 1.89184 102.68573 17799 ft 368 kts 126°
2026-05-08 14:07 1.87647 102.70612 17322 ft 366 kts 126°
2026-05-08 14:07 1.84394 102.74929 16329 ft 362 kts 127°
2026-05-08 14:08 1.82880 102.76940 15867 ft 360 kts 127°
2026-05-08 14:08 1.81377 102.78936 15415 ft 359 kts 126°
2026-05-08 14:08 1.79862 102.80950 15040 ft 355 kts 127°
2026-05-08 14:08 1.78399 102.82895 14615 ft 353 kts 127°
2026-05-08 14:09 1.76923 102.84854 14163 ft 353 kts 127°
2026-05-08 14:09 1.75446 102.86817 13703 ft 353 kts 126°
2026-05-08 14:09 1.74221 102.88932 13207 ft 352 kts 113°
2026-05-08 14:09 1.73512 102.91258 12740 ft 350 kts 100°
2026-05-08 14:10 1.73242 102.93667 12276 ft 348 kts 96°
2026-05-08 14:10 1.73020 102.96067 11806 ft 346 kts 96°
2026-05-08 14:10 1.72798 102.98456 11335 ft 344 kts 96°
2026-05-08 14:10 1.72573 103.00832 10862 ft 342 kts 96°
2026-05-08 14:11 1.72347 103.03196 10409 ft 340 kts 96°
2026-05-08 14:11 1.72131 103.05479 10267 ft 318 kts 96°
2026-05-08 14:11 1.71930 103.07619 9974 ft 302 kts 96°
2026-05-08 14:11 1.71736 103.09679 9612 ft 293 kts 96°
2026-05-08 14:12 1.71543 103.11710 9488 ft 294 kts 96°
2026-05-08 14:12 1.71347 103.13754 9272 ft 296 kts 96°
2026-05-08 14:12 1.71152 103.15799 8904 ft 295 kts 96°
2026-05-08 14:12 1.70957 103.17833 8512 ft 293 kts 96°
2026-05-08 14:13 1.70764 103.19859 8118 ft 292 kts 96°
2026-05-08 14:13 1.70574 103.21874 7716 ft 291 kts 96°
2026-05-08 14:13 1.70385 103.23872 7334 ft 290 kts 96°
2026-05-08 14:13 1.70195 103.25881 6944 ft 289 kts 96°
2026-05-08 14:14 1.70009 103.27875 6553 ft 288 kts 96°
2026-05-08 14:14 1.69883 103.29872 6150 ft 287 kts 88°
2026-05-08 14:14 1.70228 103.31823 5861 ft 284 kts 72°
2026-05-08 14:14 1.70838 103.33703 5663 ft 284 kts 72°
2026-05-08 14:15 1.71436 103.35583 5439 ft 284 kts 72°
2026-05-08 14:15 1.72029 103.37459 5210 ft 283 kts 73°
2026-05-08 14:15 1.72623 103.39336 5003 ft 282 kts 73°
2026-05-08 14:15 1.73215 103.41204 4780 ft 281 kts 73°
2026-05-08 14:16 1.73807 103.43066 4558 ft 281 kts 73°
2026-05-08 14:16 1.74284 103.44567 4382 ft 280 kts 73°
2026-05-08 14:16 1.74867 103.46405 4159 ft 273 kts 73°
2026-05-08 14:16 1.75431 103.48185 3955 ft 264 kts 73°
2026-05-08 14:17 1.75980 103.49906 3754 ft 255 kts 73°
2026-05-08 14:17 1.76509 103.51566 3560 ft 247 kts 73°
2026-05-08 14:17 1.77054 103.53171 3314 ft 242 kts 71°
2026-05-08 14:17 1.77621 103.54717 3046 ft 231 kts 71°
2026-05-08 14:18 1.78170 103.56183 2795 ft 220 kts 71°
2026-05-08 14:18 1.78662 103.57584 2597 ft 206 kts 78°
2026-05-08 14:18 1.78778 103.58949 2339 ft 190 kts 94°
2026-05-08 14:18 1.78804 103.59811 2146 ft 183 kts 88°
2026-05-08 14:19 1.78639 103.60990 2038 ft 166 kts 118°
2026-05-08 14:19 1.77934 103.61823 2037 ft 153 kts 149°
2026-05-08 14:19 1.76980 103.62237 2044 ft 148 kts 162°
2026-05-08 14:19 1.76016 103.62587 2044 ft 146 kts 161°
2026-05-08 14:20 1.74757 103.63044 1956 ft 144 kts 162°
2026-05-08 14:20 1.73820 103.63386 1806 ft 143 kts 161°
2026-05-08 14:20 1.73191 103.63614 1690 ft 143 kts 161°
2026-05-08 14:20 1.72256 103.63955 1515 ft 143 kts 161°
2026-05-08 14:21 1.71321 103.64295 1327 ft 143 kts 161°
2026-05-08 14:21 1.70389 103.64635 1146 ft 143 kts 161°
2026-05-08 14:21 1.69454 103.64975 971 ft 143 kts 161°
2026-05-08 14:21 1.68516 103.65316 794 ft 143 kts 161°
2026-05-08 14:22 1.67577 103.65656 612 ft 143 kts 160°
2026-05-08 14:22 1.66643 103.66004 414 ft 143 kts 160°
2026-05-08 14:22 1.65708 103.66343 247 ft 143 kts 160°
2026-05-08 14:22 1.64829 103.66661 204 ft 117 kts 160°
2026-05-08 14:23 1.64236 103.66878 210 ft 67 kts 160°
2026-05-08 14:23 1.63909 103.66996 203 ft 43 kts 160°
2026-05-08 14:23 1.63709 103.67061 200 ft 25 kts 172°
2026-05-08 14:23 1.63536 103.67052 200 ft 23 kts 189°
2026-05-08 14:24 1.63438 103.67037 200 ft 8 kts 187°
2026-05-08 14:24 1.63407 103.67032 204 ft 0 kts 195°
2026-05-08 14:24 1.63398 103.67026 203 ft 2 kts 215°
2026-05-08 14:25 1.63390 103.67016 206 ft 1 kts 236°
2026-05-08 14:25 1.63381 103.66997 203 ft 4 kts 248°
2026-05-08 14:25 1.63360 103.66942 206 ft 10 kts 252°
2026-05-08 14:25 1.63393 103.66904 200 ft 7 kts 343°
2026-05-08 14:26 1.63449 103.66885 204 ft 11 kts 340°
2026-05-08 14:26 1.63527 103.66858 206 ft 11 kts 340°
2026-05-08 14:26 1.63570 103.66814 202 ft 8 kts 271°
2026-05-08 14:26 1.63554 103.66772 202 ft 1 kts 249°
2026-05-08 14:27 1.63553 103.66768 200 ft 2 kts 249°